Flag for U.S.A. Weather past 2 weeks in Winamac, Indiana, U.S.A.

Now
86 °F

Scattered clouds.


Feels Like: 84 °F
Forecast: 62 / 85 °F
Wind: 12 mph from Northwest

Location: Porter County Municipal Airport

Current Time: Jul 31, 2015 at 6:32:46 PM

Latest Report: Jul 31, 2015 at 4:56 PM


Visibility: 10 mi

Pressure: 29.92 "Hg

Humidity: 33%

Dew point: 54 °F

Location of WinamacLocation

Historic Weather in Winamac — Graph

°F

Winamac temperature yesterday

Maximum temperature yesterday: 86 °F (at 3:56 PM)
Minimum temperature yesterday: 62 °F (at 5:56 AM)
Average temperature yesterday: 75 °F

Past Weeks' High & Low Weather Summary

 TemperatureHumidityPressure
High90 °F (Jul 17, 3:56 PM)100% (Jul 20, 6:02 AM)30.06 "Hg (Jul 20, 6:02 AM)
Low60 °F (Jul 23, 5:56 AM)33% (Jul 30, 3:56 PM)29.74 "Hg (Jul 20, 8:56 PM)
Average75 °F73%29.93 "Hg
* Reported Jul 16 4:56 PM — Jul 31 4:56 PM, Winamac, Weather by CustomWeather, © 2015

Note: Actual official high and low records may vary slightly from our data, if they occured in-between our weather recording intervals... More about our weather records

Advertising

Winamac weather history for previous 24 hours

 ConditionsComfort  
Time TempWeatherWind HumidityBarometerVisibility
4:56 PM
Fri, Jul 31
86 °FScattered clouds.12 mph33%29.92 "Hg10 mi
3:56 PM86 °FSunny.15 mph33%29.93 "Hg10 mi
2:56 PM85 °FPartly sunny.12 mph39%29.95 "Hg10 mi
1:56 PM85 °FPartly sunny.7 mph50%29.96 "Hg10 mi
12:56 PM85 °FBroken clouds.15 mph53%29.97 "Hg10 mi
11:56 AM84 °FSunny.14 mph55%29.99 "Hg10 mi
10:56 AM78 °FOvercast.10 mph58%30.01 "Hg10 mi
9:56 AM78 °FScattered clouds.12 mph58%30.02 "Hg10 mi
8:56 AM73 °FSunny.8 mph66%30.03 "Hg10 mi
7:56 AM68 °FSunny.5 mph82%30.02 "Hg10 mi
6:56 AM64 °FSunny.3 mph87%30.01 "Hg10 mi
5:56 AM65 °FClear.6 mph85%30.02 "Hg10 mi
4:56 AM66 °FClear.5 mph84%30.02 "Hg10 mi
3:56 AM66 °FClear.7 mph84%30.03 "Hg10 mi
2:56 AM67 °FClear.7 mph81%30.02 "Hg10 mi
1:56 AM67 °FClear.7 mph81%30.01 "Hg10 mi
12:56 AM69 °FClear.6 mph76%30.01 "Hg10 mi
11:56 PM
Thu, Jul 30
70 °FClear.6 mph71%30.01 "Hg10 mi
10:56 PM70 °FClear.8 mph68%30.01 "Hg10 mi
9:56 PM73 °FClear.6 mph59%30.00 "Hg10 mi
8:56 PM78 °FSunny.5 mph46%29.99 "Hg10 mi
7:56 PM82 °FSunny.7 mph40%29.99 "Hg10 mi
6:56 PM85 °FSunny.5 mph37%30.01 "Hg10 mi
Weather by CustomWeather, © 2015

See weather overviewHow to use our weather pages